| time (UTC) | temp C | wind direction | speed KPH | gust KPH | rain 1hr cm | rain 24hr cm | rain mn cm | humidity % | barometer mb |
| 20260510174019 | 13 | 184 | 4.8 | 4.8 | 0.00 | 0.00 | 0.00 | 83 | 1021.8 |
| 20260510173514 | 12 | 150 | 0.0 | 3.2 | 0.00 | 0.00 | 0.00 | 85 | 1021.6 |
| 20260510173011 | 12 | 163 | 3.2 | 8.0 | 0.00 | 0.00 | 0.00 | 85 | 1022.1 |
| 20260510172507 | 12 | 162 | 8.0 | 9.7 | 0.00 | 0.00 | 0.00 | 85 | 1022.0 |
| 20260510172004 | 12 | 198 | 3.2 | 8.0 | 0.00 | 0.00 | 0.00 | 86 | 1022.2 |
| 20260510171500 | 12 | 197 | 4.8 | 8.0 | 0.00 | 0.00 | 0.00 | 86 | 1021.8 |
| 20260510170957 | 12 | 197 | 3.2 | 4.8 | 0.00 | 0.00 | 0.00 | 87 | 1021.8 |
| 20260510170454 | 12 | 180 | 4.8 | 8.0 | 0.00 | 0.00 | 0.00 | 87 | 1021.7 |
| 20260510165949 | 12 | 165 | 1.6 | 8.0 | 0.00 | 0.00 | 0.00 | 87 | 1021.8 |
| 20260510165440 | 12 | 199 | 4.8 | 9.7 | 0.00 | 0.00 | 0.00 | 87 | 1021.8 |
| 20260510164937 | 12 | 250 | 6.4 | 8.0 | 0.00 | 0.00 | 0.00 | 88 | 1022.0 |
| 20260510164434 | 12 | 195 | 4.8 | 8.0 | 0.00 | 0.00 | 0.00 | 87 | 1021.7 |
| 20260510163934 | 12 | 169 | 4.8 | 9.7 | 0.00 | 0.00 | 0.00 | 87 | 1021.6 |
| 20260510163430 | 12 | 155 | 4.8 | 9.7 | 0.00 | 0.00 | 0.00 | 85 | 1021.5 |
| 20260510162925 | 12 | 184 | 4.8 | 4.8 | 0.00 | 0.00 | 0.00 | 84 | 1021.8 |
| 20260510162423 | 12 | 166 | 1.6 | 3.2 | 0.00 | 0.00 | 0.00 | 86 | 1021.1 |
| 20260510161918 | 12 | 144 | 0.0 | 1.6 | 0.00 | 0.00 | 0.00 | 86 | 1020.7 |
| 20260510161415 | 12 | 144 | 0.0 | 1.6 | 0.00 | 0.00 | 0.00 | 87 | 1020.9 |
| 20260510160912 | 12 | 152 | 1.6 | 1.6 | 0.00 | 0.00 | 0.00 | 87 | 1020.8 |
| 20260510160409 | 12 | 157 | 1.6 | 3.2 | 0.00 | 0.00 | 0.00 | 87 | 1021.0 |
| 20260510155907 | 12 | 79 | 3.2 | 4.8 | 0.00 | 0.00 | 0.00 | 88 | 1020.8 |
| 20260510155404 | 12 | 170 | 1.6 | 3.2 | 0.00 | 0.00 | 0.00 | 88 | 1021.1 |
| 20260510154900 | 12 | 252 | 4.8 | 4.8 | 0.00 | 0.00 | 0.00 | 88 | 1020.7 |
| 20260510154357 | 12 | 179 | 1.6 | 1.6 | 0.00 | 0.00 | 0.00 | 89 | 1020.8 |
| 20260510153851 | 12 | 158 | 1.6 | 3.2 | 0.00 | 0.00 | 0.00 | 89 | 1021.0 |
| 20260510153347 | 12 | 175 | 4.8 | 4.8 | 0.00 | 0.00 | 0.00 | 89 | 1021.1 |
| 20260510152844 | 12 | 270 | 6.4 | 8.0 | 0.00 | 0.00 | 0.00 | 90 | 1020.9 |
| 20260510152341 | 12 | 153 | 0.0 | 3.2 | 0.00 | 0.00 | 0.00 | 90 | 1020.7 |
| 20260510151837 | 12 | 193 | 4.8 | 4.8 | 0.00 | 0.00 | 0.00 | 91 | 1020.5 |
| 20260510151335 | 12 | 206 | 1.6 | 3.2 | 0.00 | 0.00 | 0.00 | 92 | 1020.4 |
| 20260510150831 | 11 | 198 | 1.6 | 3.2 | 0.00 | 0.00 | 0.00 | 92 | 1020.4 |
| 20260510150327 | 12 | 168 | 0.0 | 3.2 | 0.00 | 0.00 | 0.00 | 94 | 1020.4 |
| 20260510145823 | 12 | 142 | 0.0 | 1.6 | 0.00 | 0.00 | 0.00 | 95 | 1020.5 |
| 20260510145320 | 11 | 142 | 0.0 | 0.0 | 0.00 | 0.00 | 0.00 | 96 | 1020.6 |
| 20260510144816 | 11 | 159 | 0.0 | 0.0 | 0.00 | 0.00 | 0.00 | 96 | 1020.9 |
| 20260510144313 | 11 | 156 | 1.6 | 3.2 | 0.00 | 0.00 | 0.00 | 96 | 1020.7 |
| 20260510143813 | 11 | 172 | 1.6 | 3.2 | 0.00 | 0.00 | 0.00 | 96 | 1021.1 |
| 20260510143310 | 10 | 181 | 0.0 | 1.6 | 0.00 | 0.00 | 0.00 | 97 | 1020.9 |
| 20260510142806 | 10 | 179 | 1.6 | 3.2 | 0.00 | 0.00 | 0.00 | 97 | 1020.9 |
| 20260510142306 | 10 | 177 | 1.6 | 1.6 | 0.00 | 0.00 | 0.00 | 97 | 1021.1 |
| 20260510141800 | 10 | 167 | 0.0 | 3.2 | 0.00 | 0.00 | 0.00 | 97 | 1020.8 |
| 20260510141258 | 10 | 152 | 0.0 | 0.0 | 0.00 | 0.00 | 0.00 | 97 | 1020.7 |
| 20260510140754 | 10 | 173 | 0.0 | 0.0 | 0.00 | 0.00 | 0.00 | 97 | 1020.4 |
| 20260510140250 | 10 | 165 | 0.0 | 0.0 | 0.00 | 0.00 | 0.00 | 97 | 1020.4 |
| 20260510135744 | 10 | 159 | 0.0 | 0.0 | 0.00 | 0.00 | 0.00 | 97 | 1019.9 |
| 20260510135239 | 9 | 166 | 0.0 | 0.0 | 0.00 | 0.00 | 0.00 | 97 | 1019.7 |
| 20260510134737 | 9 | 144 | 0.0 | 0.0 | 0.00 | 0.00 | 0.00 | 97 | 1019.4 |
| 20260510134234 | 9 | 140 | 0.0 | 0.0 | 0.00 | 0.00 | 0.00 | 97 | 1019.9 |
| 20260510133730 | 8 | 145 | 0.0 | 0.0 | 0.00 | 0.00 | 0.00 | 97 | 1020.1 |
| 20260510133226 | 8 | 145 | 0.0 | 0.0 | 0.00 | 0.00 | 0.00 | 97 | 1020.2 |
| 20260510132722 | 8 | 153 | 0.0 | 0.0 | 0.00 | 0.00 | 0.00 | 97 | 1020.2 |
| 20260510132220 | 8 | 153 | 0.0 | 0.0 | 0.00 | 0.00 | 0.00 | 97 | 1020.3 |
| 20260510131717 | 8 | 152 | 0.0 | 0.0 | 0.00 | 0.00 | 0.00 | 97 | 1020.5 |
| 20260510131215 | 8 | 153 | 0.0 | 0.0 | 0.00 | 0.00 | 0.00 | 97 | 1020.6 |
| 20260510130711 | 8 | 153 | 0.0 | 0.0 | 0.00 | 0.00 | 0.00 | 97 | 1020.9 |
| 20260510130208 | 8 | 158 | 0.0 | 0.0 | 0.00 | 0.00 | 0.00 | 97 | 1020.7 |
| 20260510125658 | 8 | 148 | 0.0 | 0.0 | 0.00 | 0.00 | 0.00 | 97 | 1020.6 |
| 20260510125154 | 8 | 156 | 0.0 | 0.0 | 0.00 | 0.00 | 0.00 | 97 | 1020.8 |
| 20260510124651 | 8 | 158 | 0.0 | 0.0 | 0.00 | 0.00 | 0.00 | 96 | 1020.9 |
| 20260510124148 | 8 | 161 | 0.0 | 0.0 | 0.00 | 0.00 | 0.00 | 96 | 1020.8 |
| 20260510123644 | 8 | 156 | 0.0 | 0.0 | 0.00 | 0.00 | 0.00 | 96 | 1020.5 |
| 20260510123140 | 8 | 150 | 0.0 | 0.0 | 0.00 | 0.00 | 0.00 | 96 | 1020.7 |
| 20260510122636 | 8 | 151 | 0.0 | 0.0 | 0.00 | 0.00 | 0.00 | 96 | 1020.5 |
| 20260510122132 | 8 | 151 | 0.0 | 0.0 | 0.00 | 0.00 | 0.00 | 96 | 1020.4 |
| 20260510121629 | 8 | 151 | 0.0 | 0.0 | 0.00 | 0.00 | 0.00 | 96 | 1020.4 |
| 20260510121126 | 8 | 139 | 0.0 | 0.0 | 0.00 | 0.00 | 0.00 | 96 | 1020.3 |
| 20260510120624 | 8 | 147 | 0.0 | 0.0 | 0.00 | 0.00 | 0.00 | 96 | 1020.2 |
| 20260510120119 | 8 | 151 | 0.0 | 0.0 | 0.00 | 0.00 | 0.00 | 96 | 1020.4 |
| 20260510115616 | 8 | 153 | 0.0 | 0.0 | 0.00 | 0.00 | 0.00 | 96 | 1020.4 |
| 20260510115114 | 8 | 161 | 0.0 | 0.0 | 0.00 | 0.00 | 0.00 | 96 | 1020.2 |
| 20260510114609 | 8 | 157 | 0.0 | 0.0 | 0.00 | 0.00 | 0.00 | 96 | 1020.0 |
| 20260510114106 | 8 | 144 | 0.0 | 0.0 | 0.00 | 0.00 | 0.00 | 96 | 1020.0 |
| 20260510113600 | 8 | 144 | 0.0 | 0.0 | 0.00 | 0.00 | 0.00 | 96 | 1020.2 |
| 20260510113059 | 8 | 135 | 0.0 | 0.0 | 0.00 | 0.00 | 0.00 | 96 | 1020.4 |
| 20260510112555 | 8 | 153 | 0.0 | 0.0 | 0.00 | 0.00 | 0.00 | 96 | 1020.3 |
| 20260510112052 | 8 | 150 | 0.0 | 0.0 | 0.00 | 0.00 | 0.00 | 96 | 1020.4 |
| 20260510111548 | 8 | 151 | 0.0 | 0.0 | 0.00 | 0.00 | 0.00 | 96 | 1020.3 |
| 20260510111044 | 8 | 151 | 0.0 | 0.0 | 0.00 | 0.00 | 0.00 | 96 | 1020.4 |
| 20260510110540 | 8 | 151 | 0.0 | 0.0 | 0.00 | 0.00 | 0.00 | 96 | 1020.1 |
| 20260510110037 | 8 | 151 | 0.0 | 0.0 | 0.00 | 0.00 | 0.00 | 95 | 1020.2 |
| 20260510105527 | 8 | 150 | 0.0 | 0.0 | 0.00 | 0.00 | 0.00 | 96 | 1020.2 |
| 20260510105022 | 8 | 152 | 0.0 | 0.0 | 0.00 | 0.00 | 0.00 | 95 | 1019.7 |
| 20260510104518 | 8 | 152 | 0.0 | 0.0 | 0.00 | 0.00 | 0.00 | 95 | 1019.9 |
| 20260510104014 | 8 | 156 | 0.0 | 0.0 | 0.00 | 0.00 | 0.00 | 95 | 1019.9 |
| 20260510103512 | 8 | 151 | 0.0 | 0.0 | 0.00 | 0.00 | 0.00 | 95 | 1019.7 |
| 20260510103009 | 8 | 149 | 0.0 | 0.0 | 0.00 | 0.00 | 0.00 | 95 | 1019.9 |
| 20260510102504 | 8 | 149 | 0.0 | 0.0 | 0.00 | 0.00 | 0.00 | 95 | 1019.8 |
| 20260510102001 | 8 | 149 | 0.0 | 0.0 | 0.00 | 0.00 | 0.00 | 95 | 1019.7 |
| 20260510101458 | 8 | 148 | 0.0 | 0.0 | 0.00 | 0.00 | 0.00 | 95 | 1019.7 |
| 20260510100956 | 8 | 149 | 0.0 | 0.0 | 0.00 | 0.00 | 0.00 | 95 | 1019.6 |
| 20260510100452 | 8 | 149 | 0.0 | 0.0 | 0.00 | 0.00 | 0.00 | 95 | 1019.6 |
| 20260510095948 | 8 | 149 | 0.0 | 0.0 | 0.00 | 0.00 | 0.00 | 95 | 1019.6 |
| 20260510095445 | 8 | 149 | 0.0 | 0.0 | 0.00 | 0.00 | 0.00 | 95 | 1019.3 |
| 20260510094943 | 8 | 147 | 0.0 | 0.0 | 0.00 | 0.00 | 0.00 | 95 | 1019.5 |
| 20260510094438 | 9 | 150 | 0.0 | 0.0 | 0.00 | 0.00 | 0.00 | 95 | 1019.3 |
| 20260510093934 | 9 | 150 | 0.0 | 0.0 | 0.00 | 0.00 | 0.00 | 94 | 1019.4 |
| 20260510093430 | 8 | 150 | 0.0 | 0.0 | 0.00 | 0.00 | 0.00 | 94 | 1019.3 |
| 20260510092927 | 8 | 150 | 0.0 | 0.0 | 0.00 | 0.00 | 0.00 | 94 | 1019.0 |
| 20260510092424 | 9 | 150 | 0.0 | 0.0 | 0.00 | 0.00 | 0.00 | 94 | 1019.3 |
| 20260510091919 | 8 | 150 | 0.0 | 0.0 | 0.00 | 0.00 | 0.00 | 94 | 1019.1 |
| 20260510091416 | 9 | 150 | 0.0 | 0.0 | 0.00 | 0.00 | 0.00 | 94 | 1019.1 |
| 20260510090913 | 9 | 150 | 0.0 | 0.0 | 0.00 | 0.00 | 0.00 | 94 | 1019.2 |
| 20260510090409 | 9 | 150 | 0.0 | 0.0 | 0.00 | 0.00 | 0.00 | 94 | 1019.0 |
| 20260510085905 | 9 | 150 | 0.0 | 0.0 | 0.00 | 0.00 | 0.00 | 93 | 1019.1 |
| 20260510085400 | 9 | 150 | 0.0 | 0.0 | 0.00 | 0.00 | 0.00 | 93 | 1019.1 |
| 20260510084856 | 9 | 150 | 0.0 | 0.0 | 0.00 | 0.00 | 0.00 | 93 | 1018.8 |
| 20260510084354 | 9 | 150 | 0.0 | 0.0 | 0.00 | 0.00 | 0.00 | 93 | 1018.8 |
| 20260510083850 | 10 | 150 | 0.0 | 0.0 | 0.00 | 0.00 | 0.00 | 93 | 1018.8 |
| 20260510083347 | 10 | 150 | 0.0 | 0.0 | 0.00 | 0.00 | 0.00 | 93 | 1019.0 |
| 20260510082842 | 10 | 150 | 0.0 | 0.0 | 0.00 | 0.00 | 0.00 | 93 | 1018.9 |
| 20260510082339 | 10 | 150 | 0.0 | 0.0 | 0.00 | 0.00 | 0.00 | 92 | 1018.8 |
| 20260510081837 | 10 | 150 | 0.0 | 0.0 | 0.00 | 0.00 | 0.00 | 92 | 1018.9 |
| 20260510081334 | 10 | 150 | 0.0 | 0.0 | 0.00 | 0.00 | 0.00 | 92 | 1019.1 |
| 20260510080830 | 10 | 150 | 0.0 | 0.0 | 0.00 | 0.00 | 0.00 | 92 | 1018.9 |
| 20260510080325 | 10 | 150 | 0.0 | 0.0 | 0.00 | 0.00 | 0.00 | 92 | 1018.8 |
| 20260510075823 | 10 | 150 | 0.0 | 0.0 | 0.00 | 0.00 | 0.00 | 92 | 1018.9 |
| 20260510075319 | 10 | 150 | 0.0 | 0.0 | 0.00 | 0.00 | 0.00 | 92 | 1018.9 |
| 20260510074816 | 10 | 150 | 0.0 | 0.0 | 0.00 | 0.00 | 0.00 | 92 | 1019.0 |
| 20260510074314 | 10 | 150 | 0.0 | 0.0 | 0.00 | 0.00 | 0.00 | 92 | 1019.0 |
| 20260510073809 | 10 | 150 | 0.0 | 0.0 | 0.00 | 0.00 | 0.00 | 92 | 1018.8 |
| 20260510073305 | 10 | 150 | 0.0 | 0.0 | 0.00 | 0.00 | 0.00 | 92 | 1018.8 |
| 20260510072801 | 10 | 149 | 0.0 | 0.0 | 0.00 | 0.00 | 0.00 | 92 | 1018.8 |
| 20260510072258 | 10 | 150 | 0.0 | 0.0 | 0.00 | 0.00 | 0.00 | 92 | 1019.0 |
| 20260510071754 | 10 | 150 | 0.0 | 0.0 | 0.00 | 0.00 | 0.00 | 92 | 1018.9 |
| 20260510071251 | 10 | 146 | 0.0 | 0.0 | 0.00 | 0.00 | 0.00 | 92 | 1018.7 |
| 20260510070751 | 10 | 148 | 0.0 | 0.0 | 0.00 | 0.00 | 0.00 | 92 | 1018.8 |
| 20260510070247 | 11 | 144 | 0.0 | 0.0 | 0.00 | 0.00 | 0.00 | 92 | 1019.0 |
| 20260510065746 | 11 | 152 | 0.0 | 0.0 | 0.00 | 0.00 | 0.00 | 92 | 1018.9 |
| 20260510065243 | 11 | 153 | 0.0 | 0.0 | 0.00 | 0.00 | 0.00 | 92 | 1018.9 |
| 20260510064740 | 11 | 150 | 0.0 | 0.0 | 0.00 | 0.00 | 0.00 | 92 | 1018.8 |
| 20260510064238 | 11 | 148 | 0.0 | 0.0 | 0.00 | 0.00 | 0.00 | 92 | 1019.1 |
| 20260510063733 | 11 | 148 | 0.0 | 0.0 | 0.00 | 0.00 | 0.00 | 91 | 1018.8 |
| 20260510063230 | 11 | 148 | 0.0 | 0.0 | 0.00 | 0.00 | 0.00 | 91 | 1019.1 |
| 20260510062727 | 11 | 151 | 0.0 | 0.0 | 0.00 | 0.00 | 0.00 | 91 | 1019.2 |
| 20260510062223 | 11 | 150 | 0.0 | 0.0 | 0.00 | 0.00 | 0.00 | 90 | 1019.1 |
| 20260510061718 | 11 | 151 | 0.0 | 0.0 | 0.00 | 0.00 | 0.00 | 90 | 1019.1 |
| 20260510061216 | 11 | 145 | 0.0 | 0.0 | 0.00 | 0.00 | 0.00 | 90 | 1019.0 |
| 20260510060712 | 11 | 159 | 0.0 | 0.0 | 0.00 | 0.00 | 0.00 | 90 | 1019.1 |
| 20260510060208 | 11 | 154 | 0.0 | 0.0 | 0.00 | 0.00 | 0.00 | 90 | 1018.9 |
| 20260510055705 | 12 | 153 | 0.0 | 0.0 | 0.00 | 0.00 | 0.00 | 90 | 1019.1 |
| 20260510055203 | 12 | 154 | 0.0 | 0.0 | 0.00 | 0.00 | 0.00 | 90 | 1018.9 |
| 20260510054658 | 12 | 154 | 0.0 | 0.0 | 0.00 | 0.00 | 0.00 | 89 | 1018.9 |
| 20260510054154 | 12 | 154 | 0.0 | 0.0 | 0.00 | 0.00 | 0.00 | 89 | 1018.9 |
| 20260510053654 | 12 | 154 | 0.0 | 0.0 | 0.00 | 0.00 | 0.00 | 89 | 1018.9 |
| 20260510053151 | 12 | 154 | 0.0 | 0.0 | 0.00 | 0.00 | 0.00 | 89 | 1019.0 |
| 20260510052646 | 12 | 153 | 0.0 | 0.0 | 0.00 | 0.00 | 0.00 | 89 | 1018.9 |
| 20260510052142 | 12 | 153 | 0.0 | 0.0 | 0.00 | 0.00 | 0.00 | 89 | 1018.8 |
| 20260510051638 | 12 | 155 | 0.0 | 0.0 | 0.00 | 0.00 | 0.00 | 88 | 1018.8 |
| 20260510051135 | 12 | 155 | 0.0 | 0.0 | 0.00 | 0.00 | 0.00 | 88 | 1018.8 |
| 20260510050632 | 12 | 147 | 0.0 | 0.0 | 0.00 | 0.00 | 0.00 | 88 | 1018.9 |
| 20260510050130 | 12 | 151 | 0.0 | 0.0 | 0.00 | 0.00 | 0.00 | 88 | 1018.8 |
| 20260510045626 | 12 | 151 | 0.0 | 0.0 | 0.00 | 0.00 | 0.00 | 88 | 1018.8 |
| 20260510045123 | 12 | 152 | 0.0 | 0.0 | 0.00 | 0.00 | 0.00 | 87 | 1019.0 |
| 20260510044619 | 12 | 151 | 0.0 | 0.0 | 0.00 | 0.00 | 0.00 | 87 | 1018.8 |
| 20260510044116 | 12 | 151 | 0.0 | 0.0 | 0.00 | 0.00 | 0.00 | 87 | 1018.9 |
| 20260510043612 | 12 | 152 | 0.0 | 0.0 | 0.00 | 0.00 | 0.00 | 86 | 1018.9 |
| 20260510043108 | 12 | 151 | 0.0 | 0.0 | 0.00 | 0.00 | 0.00 | 86 | 1018.8 |
| 20260510042607 | 13 | 152 | 0.0 | 0.0 | 0.00 | 0.00 | 0.00 | 85 | 1018.8 |
| 20260510042102 | 13 | 151 | 0.0 | 0.0 | 0.00 | 0.00 | 0.00 | 85 | 1018.8 |
| 20260510041600 | 13 | 153 | 0.0 | 0.0 | 0.00 | 0.00 | 0.00 | 84 | 1018.9 |
| 20260510041057 | 13 | 153 | 0.0 | 0.0 | 0.00 | 0.00 | 0.00 | 84 | 1018.7 |
| 20260510040554 | 13 | 153 | 0.0 | 0.0 | 0.00 | 0.00 | 0.00 | 83 | 1018.7 |
| 20260510040049 | 13 | 153 | 0.0 | 0.0 | 0.00 | 0.00 | 0.00 | 82 | 1018.8 |
| 20260510035546 | 13 | 158 | 0.0 | 0.0 | 0.00 | 0.00 | 0.00 | 81 | 1018.6 |
| 20260510035045 | 14 | 164 | 0.0 | 0.0 | 0.00 | 0.00 | 0.00 | 81 | 1018.5 |
| 20260510034544 | 14 | 151 | 0.0 | 0.0 | 0.00 | 0.00 | 0.00 | 80 | 1018.5 |
| 20260510034041 | 15 | 151 | 0.0 | 0.0 | 0.00 | 0.00 | 0.00 | 79 | 1018.6 |
| 20260510033536 | 15 | 150 | 0.0 | 0.0 | 0.00 | 0.00 | 0.00 | 78 | 1018.7 |
| 20260510033035 | 15 | 151 | 0.0 | 0.0 | 0.00 | 0.00 | 0.00 | 78 | 1018.5 |
| 20260510032531 | 15 | 150 | 0.0 | 0.0 | 0.00 | 0.00 | 0.00 | 77 | 1018.4 |
| 20260510032026 | 15 | 157 | 0.0 | 0.0 | 0.00 | 0.00 | 0.00 | 75 | 1018.7 |
| 20260510031521 | 15 | 164 | 0.0 | 0.0 | 0.00 | 0.00 | 0.00 | 75 | 1018.7 |
| 20260510031017 | 16 | 162 | 0.0 | 0.0 | 0.00 | 0.00 | 0.00 | 74 | 1018.9 |
| 20260510030513 | 16 | 161 | 0.0 | 0.0 | 0.00 | 0.00 | 0.00 | 73 | 1018.8 |
| 20260510030011 | 16 | 161 | 0.0 | 0.0 | 0.00 | 0.00 | 0.00 | 72 | 1018.8 |
| 20260510025508 | 16 | 159 | 0.0 | 0.0 | 0.00 | 0.00 | 0.00 | 71 | 1018.8 |
| 20260510025005 | 16 | 162 | 0.0 | 0.0 | 0.00 | 0.00 | 0.00 | 69 | 1018.8 |
| 20260510024502 | 17 | 172 | 1.6 | 1.6 | 0.00 | 0.00 | 0.00 | 68 | 1018.9 |
| 20260510023958 | 17 | 164 | 1.6 | 1.6 | 0.00 | 0.00 | 0.00 | 65 | 1019.0 |
| 20260510023448 | 17 | 167 | 0.0 | 3.2 | 0.00 | 0.00 | 0.00 | 64 | 1019.0 |
| 20260510022945 | 18 | 211 | 3.2 | 3.2 | 0.00 | 0.00 | 0.00 | 63 | 1019.1 |
| 20260510022444 | 18 | 202 | 3.2 | 4.8 | 0.00 | 0.00 | 0.00 | 62 | 1019.2 |
| 20260510021943 | 19 | 164 | 1.6 | 1.6 | 0.00 | 0.00 | 0.00 | 60 | 1019.0 |
| 20260510021441 | 20 | 207 | 4.8 | 4.8 | 0.00 | 0.00 | 0.00 | 56 | 1019.0 |
| 20260510020938 | 20 | 157 | 1.6 | 1.6 | 0.00 | 0.00 | 0.00 | 58 | 1019.1 |
| 20260510020432 | 20 | 152 | 1.6 | 1.6 | 0.00 | 0.00 | 0.00 | 54 | 1019.0 |
| 20260510015928 | 20 | 159 | 1.6 | 1.6 | 0.00 | 0.00 | 0.00 | 54 | 1019.0 |
| 20260510015425 | 19 | 151 | 0.0 | 0.0 | 0.00 | 0.00 | 0.00 | 55 | 1019.4 |
| 20260510014919 | 19 | 158 | 0.0 | 1.6 | 0.00 | 0.00 | 0.00 | 56 | 1019.3 |
| 20260510014418 | 19 | 173 | 1.6 | 1.6 | 0.00 | 0.00 | 0.00 | 56 | 1019.3 |
| 20260510013914 | 19 | 173 | 1.6 | 4.8 | 0.00 | 0.00 | 0.00 | 55 | 1019.4 |
| 20260510013409 | 19 | 127 | 3.2 | 9.7 | 0.00 | 0.00 | 0.00 | 56 | 1019.6 |
| 20260510012904 | 19 | 151 | 1.6 | 16.1 | 0.00 | 0.00 | 0.00 | 54 | 1019.6 |
| 20260510012359 | 20 | 200 | 3.2 | 3.2 | 0.00 | 0.00 | 0.00 | 53 | 1019.7 |
| 20260510011854 | 20 | 231 | 3.2 | 8.0 | 0.00 | 0.00 | 0.00 | 52 | 1019.6 |
| 20260510011349 | 21 | 180 | 3.2 | 8.0 | 0.00 | 0.00 | 0.00 | 50 | 1019.7 |
| 20260510010846 | 21 | 192 | 3.2 | 4.8 | 0.00 | 0.00 | 0.00 | 52 | 1019.8 |
| 20260510010344 | 20 | 187 | 1.6 | 3.2 | 0.00 | 0.00 | 0.00 | 51 | 1019.8 |
| 20260510005840 | 20 | 223 | 4.8 | 8.0 | 0.00 | 0.00 | 0.00 | 51 | 1019.7 |
| 20260510005336 | 20 | 218 | 3.2 | 3.2 | 0.00 | 0.00 | 0.00 | 50 | 1019.9 |
| 20260510004834 | 21 | 176 | 3.2 | 3.2 | 0.00 | 0.00 | 0.00 | 49 | 1019.9 |
| 20260510004331 | 20 | 175 | 1.6 | 1.6 | 0.00 | 0.00 | 0.00 | 51 | 1020.0 |
| 20260510003829 | 20 | 190 | 3.2 | 4.8 | 0.00 | 0.00 | 0.00 | 50 | 1020.1 |
| 20260510003326 | 20 | 220 | 4.8 | 4.8 | 0.00 | 0.00 | 0.00 | 50 | 1020.2 |
| 20260510002824 | 20 | 192 | 3.2 | 4.8 | 0.00 | 0.00 | 0.00 | 49 | 1019.9 |
| 20260510002322 | 20 | 217 | 3.2 | 8.0 | 0.00 | 0.00 | 0.00 | 48 | 1020.2 |
| 20260510001818 | 21 | 175 | 3.2 | 4.8 | 0.00 | 0.00 | 0.00 | 48 | 1020.2 |
| 20260510001317 | 21 | 159 | 1.6 | 4.8 | 0.00 | 0.00 | 0.00 | 48 | 1020.2 |
| 20260510000812 | 21 | 129 | 0.0 | 3.2 | 0.00 | 0.00 | 0.00 | 46 | 1020.3 |
| 20260510000311 | 21 | 222 | 4.8 | 4.8 | 0.00 | 0.00 | 0.00 | 44 | 1020.6 |
| 20260509235807 | 21 | 176 | 0.0 | 3.2 | 0.00 | 0.00 | 0.00 | 44 | 1020.3 |
| 20260509235306 | 21 | 160 | 1.6 | 3.2 | 0.00 | 0.00 | 0.00 | 44 | 1020.4 |
| 20260509234754 | 21 | 159 | 0.0 | 3.2 | 0.00 | 0.00 | 0.00 | 45 | 1020.4 |
| 20260509234250 | 21 | 116 | 3.2 | 3.2 | 0.00 | 0.00 | 0.00 | 43 | 1020.4 |
| 20260509233749 | 21 | 157 | 1.6 | 1.6 | 0.00 | 0.00 | 0.00 | 46 | 1020.6 |
| 20260509233246 | 21 | 141 | 3.2 | 8.0 | 0.00 | 0.00 | 0.00 | 42 | 1020.6 |
| 20260509232742 | 21 | 152 | 0.0 | 4.8 | 0.00 | 0.00 | 0.00 | 42 | 1020.8 |
| 20260509232240 | 21 | 151 | 3.2 | 4.8 | 0.00 | 0.00 | 0.00 | 44 | 1020.7 |
| 20260509231736 | 21 | 106 | 1.6 | 4.8 | 0.00 | 0.00 | 0.00 | 44 | 1020.8 |
| 20260509231233 | 20 | 161 | 1.6 | 4.8 | 0.00 | 0.00 | 0.00 | 45 | 1020.9 |
| 20260509230730 | 21 | 344 | 4.8 | 8.0 | 0.00 | 0.00 | 0.00 | 44 | 1021.1 |
| 20260509230227 | 21 | 134 | 1.6 | 4.8 | 0.00 | 0.00 | 0.00 | 45 | 1021.0 |
| 20260509225722 | 21 | 140 | 1.6 | 3.2 | 0.00 | 0.00 | 0.00 | 48 | 1021.2 |
| 20260509225219 | 20 | 201 | 4.8 | 4.8 | 0.00 | 0.00 | 0.00 | 47 | 1021.3 |
| 20260509224714 | 20 | 235 | 6.4 | 11.3 | 0.00 | 0.00 | 0.00 | 45 | 1021.2 |
| 20260509224211 | 20 | 142 | 4.8 | 8.0 | 0.00 | 0.00 | 0.00 | 47 | 1021.4 |
| 20260509223708 | 20 | 250 | 3.2 | 8.0 | 0.00 | 0.00 | 0.00 | 48 | 1021.7 |
| 20260509223205 | 20 | 270 | 3.2 | 9.7 | 0.00 | 0.00 | 0.00 | 47 | 1021.7 |
| 20260509222702 | 20 | 72 | 4.8 | 9.7 | 0.00 | 0.00 | 0.00 | 46 | 1021.4 |
| 20260509222157 | 20 | 228 | 16.1 | 20.9 | 0.00 | 0.00 | 0.00 | 46 | 1021.6 |
| 20260509221648 | 20 | 191 | 6.4 | 11.3 | 0.00 | 0.00 | 0.00 | 47 | 1021.6 |
| 20260509221144 | 20 | 251 | 8.0 | 9.7 | 0.00 | 0.00 | 0.00 | 47 | 1021.8 |
| 20260509220640 | 20 | 268 | 3.2 | 8.0 | 0.00 | 0.00 | 0.00 | 47 | 1021.6 |
| 20260509220136 | 20 | 175 | 6.4 | 9.7 | 0.00 | 0.00 | 0.00 | 47 | 1021.7 |
| 20260509215633 | 20 | 190 | 4.8 | 9.7 | 0.00 | 0.00 | 0.00 | 47 | 1021.8 |
| 20260509215129 | 20 | 172 | 3.2 | 4.8 | 0.00 | 0.00 | 0.00 | 50 | 1021.8 |
| 20260509214626 | 20 | 141 | 1.6 | 9.7 | 0.00 | 0.00 | 0.00 | 51 | 1021.9 |
| 20260509214117 | 20 | 150 | 1.6 | 4.8 | 0.00 | 0.00 | 0.00 | 50 | 1021.8 |
| 20260509213613 | 20 | 156 | 0.0 | 3.2 | 0.00 | 0.00 | 0.00 | 53 | 1021.9 |
| 20260509213109 | 20 | 62 | 6.4 | 14.5 | 0.00 | 0.00 | 0.00 | 52 | 1021.8 |
| 20260509212607 | 20 | 235 | 8.0 | 9.7 | 0.00 | 0.00 | 0.00 | 52 | 1022.0 |
| 20260509212058 | 20 | 216 | 4.8 | 4.8 | 0.00 | 0.00 | 0.00 | 53 | 1021.8 |
| 20260509211554 | 19 | 209 | 4.8 | 9.7 | 0.00 | 0.00 | 0.00 | 54 | 1021.9 |
| 20260509211051 | 19 | 349 | 4.8 | 9.7 | 0.00 | 0.00 | 0.00 | 54 | 1021.9 |
| 20260509210547 | 20 | 76 | 6.4 | 9.7 | 0.00 | 0.00 | 0.00 | 54 | 1022.1 |
| 20260509210044 | 19 | 151 | 4.8 | 9.7 | 0.00 | 0.00 | 0.00 | 55 | 1022.1 |
| 20260509205538 | 20 | 214 | 4.8 | 9.7 | 0.00 | 0.00 | 0.00 | 54 | 1022.1 |
| 20260509205034 | 20 | 173 | 3.2 | 3.2 | 0.00 | 0.00 | 0.00 | 54 | 1022.3 |
| 20260509204530 | 19 | 180 | 1.6 | 4.8 | 0.00 | 0.00 | 0.00 | 55 | 1022.1 |
| 20260509204027 | 19 | 253 | 4.8 | 9.7 | 0.00 | 0.00 | 0.00 | 56 | 1022.0 |
| 20260509203522 | 19 | 252 | 4.8 | 4.8 | 0.00 | 0.00 | 0.00 | 57 | 1022.3 |
| 20260509203021 | 19 | 212 | 4.8 | 9.7 | 0.00 | 0.00 | 0.00 | 57 | 1022.2 |
| 20260509202515 | 20 | 237 | 4.8 | 9.7 | 0.00 | 0.00 | 0.00 | 56 | 1022.2 |
| 20260509202011 | 19 | 258 | 9.7 | 11.3 | 0.00 | 0.00 | 0.00 | 57 | 1022.4 |
| 20260509201506 | 19 | 173 | 4.8 | 8.0 | 0.00 | 0.00 | 0.00 | 57 | 1022.5 |
| 20260509201004 | 18 | 70 | 1.6 | 11.3 | 0.00 | 0.00 | 0.00 | 59 | 1022.4 |
| 20260509200503 | 18 | 0 | 3.2 | 9.7 | 0.00 | 0.00 | 0.00 | 61 | 1022.7 |
| 20260509200000 | 18 | 206 | 4.8 | 9.7 | 0.00 | 0.00 | 0.00 | 61 | 1022.7 |
| 20260509195455 | 18 | 238 | 9.7 | 11.3 | 0.00 | 0.00 | 0.00 | 59 | 1022.9 |
| 20260509194955 | 18 | 163 | 3.2 | 4.8 | 0.00 | 0.00 | 0.00 | 60 | 1022.7 |
| 20260509194451 | 18 | 207 | 3.2 | 11.3 | 0.00 | 0.00 | 0.00 | 60 | 1023.0 |
| 20260509193948 | 17 | 87 | 1.6 | 4.8 | 0.00 | 0.00 | 0.00 | 63 | 1023.2 |
| 20260509193448 | 17 | 342 | 6.4 | 11.3 | 0.00 | 0.00 | 0.00 | 62 | 1022.9 |
| 20260509192944 | 17 | 243 | 6.4 | 9.7 | 0.00 | 0.00 | 0.00 | 61 | 1023.2 |
| 20260509192441 | 18 | 299 | 6.4 | 9.7 | 0.00 | 0.00 | 0.00 | 62 | 1023.1 |
| 20260509191936 | 17 | 226 | 6.4 | 11.3 | 0.00 | 0.00 | 0.00 | 62 | 1023.2 |
| 20260509191432 | 18 | 18 | 8.0 | 11.3 | 0.00 | 0.00 | 0.00 | 62 | 1023.4 |
| 20260509190928 | 18 | 201 | 1.6 | 11.3 | 0.00 | 0.00 | 0.00 | 61 | 1023.4 |
| 20260509190425 | 18 | 216 | 6.4 | 9.7 | 0.00 | 0.00 | 0.00 | 61 | 1023.5 |
| 20260509185923 | 18 | 1 | 4.8 | 12.9 | 0.00 | 0.00 | 0.00 | 62 | 1023.4 |
| 20260509185420 | 18 | 149 | 3.2 | 8.0 | 0.00 | 0.00 | 0.00 | 61 | 1023.5 |
| 20260509184917 | 18 | 127 | 3.2 | 9.7 | 0.00 | 0.00 | 0.00 | 62 | 1023.6 |
| 20260509184414 | 17 | 167 | 1.6 | 3.2 | 0.00 | 0.00 | 0.00 | 63 | 1023.5 |
| 20260509183911 | 17 | 254 | 6.4 | 9.7 | 0.00 | 0.00 | 0.00 | 63 | 1023.6 |
| 20260509183405 | 17 | 136 | 1.6 | 9.7 | 0.00 | 0.00 | 0.00 | 64 | 1023.6 |
| 20260509182902 | 17 | 128 | 3.2 | 12.9 | 0.00 | 0.00 | 0.00 | 65 | 1023.5 |
| 20260509182358 | 17 | 160 | 0.0 | 9.7 | 0.00 | 0.00 | 0.00 | 65 | 1023.6 |
| 20260509181856 | 17 | 190 | 4.8 | 8.0 | 0.00 | 0.00 | 0.00 | 66 | 1023.6 |
| 20260509181347 | 17 | 224 | 4.8 | 8.0 | 0.00 | 0.00 | 0.00 | 66 | 1023.5 |
| 20260509180845 | 17 | 171 | 4.8 | 17.7 | 0.00 | 0.00 | 0.00 | 67 | 1023.5 |
| 20260509180340 | 17 | 355 | 8.0 | 11.3 | 0.00 | 0.00 | 0.00 | 66 | 1023.8 |
| 20260509175837 | 16 | 213 | 6.4 | 9.7 | 0.00 | 0.00 | 0.00 | 69 | 1023.9 |
| 20260509175333 | 16 | 196 | 1.6 | 4.8 | 0.00 | 0.00 | 0.00 | 69 | 1023.7 |
| 20260509174829 | 16 | 218 | 1.6 | 4.8 | 0.00 | 0.00 | 0.00 | 68 | 1024.0 |